Terug naar catalogus

CZ-6A DEB

ActiefPO
NORAD 61419·DEBRIS·🇨🇳 China

Gelanceerd Aug 6, 2024 vanaf Taiyuan Satellite Launch Center

Loading…

Volgende Passages (komende 24 uur)

TLE

VersSource: Space-Track

Epoch: Sep 14, 2026, 10:57 UTC

1 61419U 24140YL  26257.45631592  .00005356  00000-0  66130-3 0  9997
2 61419  88.9687 254.6736 0099321 243.2801 115.8231 14.79215536108953

Volg CZ-6A DEB in realtime met AllMySat

Download on the App Store